Location: Gisborne
(38.6530°S, 178.0040°E)
Time: 17:45:00
(UTC+13:00)

Sich 1 - Pass Details

Date: 24 January 2019
Orbit: 594 x 626 km, 82.5° (Epoch: 23 October)

Event Time Altitude Azimuth Distance (km) Brightness Sun altitude
Rises 20:48:56 0° 184° (S) 2,873 7.0 -4.2°
Reaches altitude 10° 20:51:11 10° 179° (S) 1,962 6.1 -4.6°
Maximum altitude 20:55:28 59° 99° (E) 699 3.1 -5.3°
Drops below altitude 10° 20:59:43 10° 19° (NNE) 1,941 5.2 -6.0°
Sets 21:01:56 0° 15° (NNE) 2,838 6.0 -6.4°
